Regional Weather Roundup
Issued by NWS

Home | Current Version | Previous Version | Graphics & Text | Print | Product List | Glossary On
Versions: 1 2 3 4 5 6 7 8 9 10 11 12 13 14 15 16 17 18 19 20 21 22 23 24 25 26 27 28 29 30 31 32 33 34 35 36 37 38 39 40 41 42 43 44 45 46 47 48 49 50
000
ASUS43 KOAX 280702
RWRNE

WEATHER ROUNDUP FOR NEBRASKA
NATIONAL WEATHER SERVICE OMAHA NE
200 AM CDT SAT MAY 28 2016

NOTES: SATELLITE DATA IS BEING USED TO AUGMENT CLOUD COVER ABOVE
       12000 FEET.
       "FAIR" INDICATES FEW OR NO CLOUDS BELOW 12,000 FEET WITH NO
       SIGNIFICANT WEATHER AND/OR OBSTRUCTIONS TO VISIBILITY.

  * THESE STATIONS DO NOT REPORT WEATHER SUCH AS RAIN...SNOW OR FOG.

NEZ001>004-019>022-054>056-280800-
NEBRASKA PANHANDLE

CITY           SKY/WX    TMP DP  RH WIND       PRES   REMARKS
SCOTTSBLUFF    CLEAR     44  41  89 SE3       29.91R
ALLIANCE       CLOUDY    43  42  97 W6        29.89S
CHADRON        CLOUDY    48  44  86 CALM      29.88S
SIDNEY         CLEAR     44  42  93 NW9       29.92S
$$

NEZ057>060-069>072-079>082-280800-
SOUTHWEST NEBRASKA

CITY           SKY/WX    TMP DP  RH WIND       PRES   REMARKS
NORTH PLATTE   CLOUDY    57  51  80 N7        29.83R
IMPERIAL       PTCLDY    52  48  86 NW12      29.85R
LEXINGTON      RAIN      56  53  91 E16       29.79F
MCCOOK         CLOUDY    54  50  86 W8        29.80R
$$

NEZ005>010-023>029-035>040-094-280800-
NORTH CENTRAL NEBRASKA

CITY           SKY/WX    TMP DP  RH WIND       PRES   REMARKS
VALENTINE      CLOUDY    54  50  86 W7        29.82F
AINSWORTH      CLOUDY    57  52  85 NW7       29.81R
BROKEN BOW     LGT RAIN  56  54  93 SE3       29.80S
O`NEILL        RAIN      59  57  94 CALM      29.77S
ORD            LGT RAIN  57  55  93 SW5       29.77R
$$

NEZ041-046>049-061>064-073>077-083>087-280800-
SOUTH CENTRAL NEBRASKA

CITY           SKY/WX    TMP DP  RH WIND       PRES   REMARKS
GRAND ISLAND   LGT RAIN  57  55  93 SW8       29.78R
AURORA         LGT RAIN  58  56  96 W6        29.76R
HASTINGS       MOCLDY    57  52  83 SW8       29.78R
KEARNEY *      CLOUDY    57  54  88 NW5       29.81S
YORK           CLOUDY    57  54  88 CALM      29.74R
$$

NEZ011>018-030>034-042>045-280800-
NORTHEAST NEBRASKA

CITY           SKY/WX    TMP DP  RH WIND       PRES   REMARKS
NORFOLK        CLOUDY    59  56  89 N8        29.68S
ALBION         CLOUDY    57  55  91 NW8       29.74R
BLAIR          MOCLDY    60  59  96 E7        29.70S
FREMONT        CLOUDY    59  58  97 CALM      29.69F
TEKAMAH        CLOUDY    61  59  93 SE9       29.69S
$$

NEZ050>053-065>068-078-088>093-280800-
SOUTHEAST NEBRASKA

CITY           SKY/WX    TMP DP  RH WIND       PRES   REMARKS
LINCOLN        PTCLDY    59  56  89 E3        29.71F
OMAHA EPPLEY   CLOUDY    62  59  90 E5        29.71S
BEATRICE       MOCLDY    58  56  94 SE5       29.73R
FALLS CITY     CLOUDY    61  59  93 E9        29.70F
NEBRASKA CITY  DRIZZLE   60  60 100 E6        29.71F
PLATTSMOUTH    CLOUDY    63  62  97 SE7       29.72S
$$

NEZ044-045-051>053-067-280800-
OMAHA AREA

CITY           SKY/WX    TMP DP  RH WIND       PRES   REMARKS
OMAHA EPPLEY   CLOUDY    62  59  90 E5        29.71S
BLAIR          MOCLDY    60  59  96 E7        29.70S
FREMONT        CLOUDY    59  58  97 CALM      29.69F
OFFUTT AFB     CLOUDY    63  63 100 E3        29.71S
PLATTSMOUTH    CLOUDY    63  62  97 SE7       29.72S
WAHOO          FAIR      59  57  94 S5        29.69S
$$




USA.gov is the U.S. government's official web portal to all federal, state and local government web resources and services.